This is the latest recevied weather packets stored in our database for station/object KK6MIG-13. If no packets are shown the sender has not sent any weather packets the latest 1 day(s).
| Time | Temp. | Humidity | Pressure | Rain* | Wind** | Luminosity | Snow |
|---|---|---|---|---|---|---|---|
| 1778034464 | 14.44° C | 1% | 1014.9 hPa | 0 mm | 4.02 m/s, 225° | 49 W/m² | - |
| 1778034404 | 14.44° C | 1% | 1014.9 hPa | 0 mm | 4.47 m/s, 263° | 42 W/m² | - |
| 1778034344 | 14.44° C | 1% | 1014.8 hPa | 0 mm | 4.47 m/s, 242° | 40 W/m² | - |
| 1778034284 | 14.44° C | 1% | 1014.8 hPa | 0 mm | 4.47 m/s, 247° | 40 W/m² | - |
| 1778034224 | 14.44° C | 1% | 1014.8 hPa | 0 mm | 4.47 m/s, 253° | 26 W/m² | - |
| 1778034164 | 14.44° C | 1% | 1014.8 hPa | 0 mm | 4.47 m/s, 257° | 26 W/m² | - |
| 1778034103 | 14.44° C | 1% | 1014.8 hPa | 0 mm | 4.47 m/s, 245° | 30 W/m² | - |
| 1778034045 | 14.44° C | 1% | 1014.7 hPa | 0 mm | 4.47 m/s, 265° | 35 W/m² | - |
| 1778033984 | 14.44° C | 1% | 1014.7 hPa | 0 mm | 4.47 m/s, 271° | 39 W/m² | - |
| 1778033924 | 14.44° C | 1% | 1014.7 hPa | 0 mm | 4.92 m/s, 265° | 44 W/m² | - |
| 1778033864 | 14.44° C | 1% | 1014.7 hPa | 0 mm | 4.47 m/s, 237° | 47 W/m² | - |
| 1778033804 | 14.44° C | 1% | 1014.7 hPa | 0 mm | 4.47 m/s, 263° | 51 W/m² | - |
| 1778033744 | 14.44° C | 1% | 1014.7 hPa | 0 mm | 4.47 m/s, 244° | 67 W/m² | - |
| 1778033682 | 14.44° C | 1% | 1014.7 hPa | 0 mm | 4.47 m/s, 306° | 91 W/m² | - |
| 1778033621 | 14.44° C | 1% | 1014.6 hPa | 0 mm | 4.47 m/s, 255° | 76 W/m² | - |
| 1778033561 | 14.44° C | 1% | 1014.7 hPa | 0 mm | 4.47 m/s, 247° | 58 W/m² | - |
| 1778033511 | 14.44° C | 1% | 1014.7 hPa | 0 mm | 4.02 m/s, 213° | 128 W/m² | - |
| 1778033507 | 14.44° C | 1% | 1014.6 hPa | 0 mm | 4.02 m/s, 225° | 123 W/m² | - |
| 1778033382 | 14.44° C | 1% | 1014.7 hPa | 0 mm | 4.02 m/s, 238° | 107 W/m² | - |
| 1778033322 | 14.44° C | 1% | 1014.7 hPa | 0 mm | 4.02 m/s, 226° | 121 W/m² | - |
| 1778033262 | 14.44° C | 1% | 1014.6 hPa | 0 mm | 4.02 m/s, 223° | 146 W/m² | - |
| 1778033195 | 14.44° C | 1% | 1014.7 hPa | 0 mm | 4.02 m/s, 235° | 111 W/m² | - |
| 1778033136 | 14.44° C | 1% | 1014.7 hPa | 0 mm | 4.47 m/s, 217° | 142 W/m² | - |
| 1778033076 | 14.44° C | 1% | 1014.7 hPa | 0 mm | 4.02 m/s, 261° | 169 W/m² | - |
| 1778033016 | 14.44° C | 1% | 1014.7 hPa | 0 mm | 4.47 m/s, 202° | 204 W/m² | - |
* Rain latest hour (hover to see other rain measurements)
** Current wind speed in m/s (hover to see current wind gust speed)